Total_Precipitation_Accumulation
0.53 0.65 0.81 1.04 1.31 1.49 1.54 1.66 1.80 2.00 2.20 2.51 2.86 3.04 3.13 3.36 3.50 3.60 3.74 3.70 3.64 3.72 3.75 3.65 3.55 3.39 3.24 3.09 2.98 2.80 2.63 2.41 2.30 2.16 1.84 1.49 1.28 1.29 1.25 1.27 1.36 1.37 1.30
0.63 0.89 1.12 1.47 1.66 1.72 1.72 1.80 1.90 2.16 2.44 2.81 3.26 3.72 3.93 4.12 4.15 4.19 4.39 4.48 4.49 4.65 4.75 4.62 4.41 4.19 3.81 3.38 3.06 2.85 2.71 2.48 2.41 2.31 2.22 1.76 1.41 1.18 0.99 1.04 1.09 1.13 1.21
0.93 1.13 1.33 1.44 1.62 1.73 1.82 1.92 2.21 2.64 3.09 3.55 4.05 4.51 4.83 4.92 4.87 4.59 4.66 4.79 4.77 4.84 5.00 4.96 4.70 4.33 3.74 3.21 3.01 2.90 2.76 2.61 2.51 2.35 2.38 2.03 1.68 1.39 1.06 0.89 0.84 0.89 0.90
1.00 1.12 1.30 1.49 1.58 1.72 1.90 2.01 2.33 2.90 3.39 3.86 4.51 5.03 5.35 5.54 5.65 5.42 5.11 4.95 4.79 4.66 4.58 4.46 4.06 3.63 3.27 2.98 2.85 2.81 2.61 2.57 2.47 2.37 2.09 1.85 1.63 1.47 1.21 0.99 0.85 0.81 0.78
0.81 0.94 1.05 1.35 1.59 1.66 1.71 1.81 2.21 2.80 3.54 4.27 4.81 5.28 5.66 5.81 5.79 5.45 5.06 4.66 4.32 3.92 3.58 3.25 2.99 2.85 2.65 2.44 2.34 2.31 2.25 2.12 2.03 2.00 1.94 1.85 1.65 1.38 1.19 1.05 0.93 0.91 0.85
0.71 0.72 0.81 1.02 1.32 1.39 1.55 1.79 2.13 2.82 3.59 4.19 4.70 5.07 5.40 5.44 5.18 4.77 4.33 4.03 3.64 3.19 2.77 2.57 2.35 2.20 2.02 1.80 1.68 1.66 1.69 1.75 1.80 1.84 1.80 1.73 1.67 1.53 1.43 1.29 1.11 1.06 1.03
0.69 0.68 0.71 0.83 1.05 1.22 1.50 1.87 2.25 2.78 3.23 3.74 4.17 4.41 4.59 4.64 4.58 4.33 3.98 3.72 3.31 2.88 2.45 2.08 1.89 1.67 1.49 1.39 1.35 1.32 1.31 1.37 1.47 1.59 1.62 1.59 1.56 1.52 1.52 1.51 1.39 1.28 1.16
0.76 0.82 0.87 0.95 1.05 1.16 1.35 1.69 2.03 2.44 2.67 2.91 3.24 3.46 3.59 3.62 3.53 3.38 3.13 2.85 2.56 2.30 1.99 1.59 1.28 1.10 0.98 0.93 0.95 1.00 1.06 1.10 1.14 1.23 1.33 1.35 1.35 1.38 1.42 1.46 1.48 1.52 1.40
0.74 0.84 0.90 0.93 0.98 1.03 1.19 1.35 1.53 1.80 2.07 2.31 2.44 2.54 2.59 2.50 2.43 2.27 2.06 1.87 1.70 1.52 1.30 1.08 0.93 0.83 0.78 0.74 0.71 0.72 0.76 0.82 0.88 0.95 1.06 1.16 1.22 1.24 1.28 1.34 1.38 1.41 1.43
0.76 0.83 0.86 0.86 0.84 0.84 0.95 1.06 1.21 1.36 1.52 1.66 1.71 1.64 1.63 1.63 1.49 1.37 1.28 1.14 1.00 0.90 0.82 0.73 0.70 0.67 0.60 0.57 0.58 0.56 0.57 0.67 0.70 0.72 0.80 0.93 1.05 1.13 1.20 1.26 1.28 1.24 1.21
0.82 0.82 0.79 0.76 0.71 0.67 0.72 0.79 0.87 1.02 1.12 1.16 1.18 1.09 1.03 0.96 0.89 0.81 0.80 0.73 0.67 0.65 0.62 0.56 0.54 0.54 0.54 0.52 0.50 0.50 0.48 0.53 0.65 0.74 0.79 0.84 0.90 0.97 1.01 1.04 1.08 1.14 1.17
0.86 0.76 0.69 0.65 0.63 0.61 0.60 0.63 0.70 0.75 0.76 0.75 0.72 0.70 0.65 0.62 0.60 0.57 0.56 0.58 0.56 0.53 0.52 0.49 0.48 0.49 0.51 0.53 0.51 0.51 0.51 0.52 0.57 0.63 0.66 0.67 0.69 0.75 0.83 0.88 0.90 0.96 1.02
0.88 0.83 0.79 0.70 0.67 0.67 0.64 0.58 0.59 0.62 0.60 0.58 0.59 0.54 0.53 0.52 0.53 0.53 0.53 0.53 0.52 0.49 0.47 0.46 0.46 0.47 0.47 0.47 0.49 0.50 0.49 0.48 0.51 0.52 0.52 0.54 0.56 0.58 0.60 0.64 0.68 0.74 0.78
0.81 0.86 0.91 0.87 0.77 0.69 0.69 0.62 0.56 0.54 0.57 0.57 0.54 0.47 0.43 0.43 0.44 0.44 0.45 0.44 0.44 0.46 0.48 0.48 0.46 0.42 0.38 0.35 0.34 0.35 0.35 0.33 0.35 0.35 0.36 0.42 0.49 0.49 0.49 0.48 0.48 0.52 0.61
0.91 0.90 0.91 0.88 0.81 0.75 0.71 0.66 0.61 0.57 0.58 0.60 0.61 0.55 0.47 0.44 0.44 0.45 0.47 0.46 0.42 0.40 0.38 0.34 0.31 0.25 0.20 0.18 0.18 0.20 0.23 0.23 0.24 0.24 0.23 0.26 0.34 0.42 0.42 0.41 0.43 0.48 0.55
1.14 1.11 1.05 1.01 0.98 0.91 0.81 0.74 0.71 0.68 0.69 0.71 0.73 0.70 0.65 0.61 0.58 0.52 0.47 0.42 0.38 0.31 0.25 0.20 0.18 0.16 0.14 0.14 0.14 0.15 0.20 0.22 0.22 0.22 0.23 0.23 0.26 0.29 0.31 0.36 0.44 0.53 0.54
1.38 1.32 1.27 1.20 1.15 1.08 1.01 0.95 0.87 0.81 0.79 0.82 0.83 0.78 0.71 0.64 0.54 0.43 0.36 0.33 0.29 0.27 0.25 0.19 0.16 0.13 0.12 0.12 0.12 0.13 0.19 0.23 0.23 0.23 0.24 0.21 0.22 0.25 0.25 0.29 0.34 0.40 0.43
1.37 1.33 1.29 1.28 1.27 1.18 1.10 1.04 0.96 0.89 0.85 0.86 0.81 0.73 0.61 0.53 0.44 0.37 0.33 0.31 0.28 0.29 0.28 0.24 0.21 0.17 0.11 0.09 0.10 0.11 0.17 0.21 0.22 0.23 0.24 0.24 0.25 0.26 0.27 0.27 0.28 0.33 0.39
1.44 1.38 1.30 1.22 1.20 1.15 1.10 1.05 1.00 0.92 0.85 0.80 0.69 0.56 0.45 0.40 0.36 0.33 0.32 0.31 0.29 0.27 0.25 0.23 0.22 0.21 0.16 0.10 0.09 0.11 0.17 0.23 0.22 0.20 0.20 0.22 0.25 0.26 0.26 0.28 0.35 0.38 0.42
1.21 1.14 1.05 0.97 0.96 0.98 0.97 0.93 0.89 0.81 0.72 0.59 0.47 0.40 0.38 0.36 0.34 0.32 0.29 0.28 0.28 0.27 0.22 0.19 0.19 0.18 0.17 0.11 0.10 0.13 0.17 0.22 0.21 0.20 0.19 0.19 0.20 0.21 0.21 0.27 0.36 0.44 0.45
0.87 0.82 0.81 0.87 0.90 0.85 0.76 0.73 0.69 0.62 0.50 0.42 0.37 0.34 0.31 0.27 0.28 0.30 0.30 0.29 0.28 0.29 0.27 0.26 0.22 0.17 0.12 0.08 0.08 0.10 0.13 0.18 0.21 0.23 0.27 0.26 0.19 0.16 0.19 0.24 0.30 0.37 0.36
0.62 0.62 0.66 0.73 0.73 0.63 0.57 0.58 0.54 0.43 0.33 0.35 0.36 0.33 0.28 0.20 0.23 0.33 0.34 0.31 0.35 0.38 0.36 0.33 0.30 0.22 0.15 0.08 0.07 0.08 0.09 0.11 0.19 0.28 0.29 0.27 0.19 0.16 0.20 0.23 0.28 0.31 0.38
0.47 0.52 0.53 0.57 0.59 0.55 0.55 0.56 0.52 0.40 0.37 0.43 0.45 0.36 0.26 0.25 0.28 0.32 0.33 0.32 0.33 0.32 0.29 0.28 0.29 0.24 0.19 0.13 0.07 0.07 0.08 0.10 0.14 0.21 0.20 0.19 0.20 0.22 0.32 0.32 0.32 0.39 0.54
0.39 0.43 0.44 0.44 0.46 0.45 0.48 0.51 0.45 0.41 0.48 0.56 0.47 0.34 0.30 0.29 0.29 0.28 0.24 0.23 0.25 0.24 0.22 0.21 0.20 0.22 0.21 0.14 0.11 0.10 0.12 0.14 0.17 0.20 0.21 0.28 0.33 0.37 0.44 0.50 0.56 0.59 0.59
0.37 0.39 0.41 0.40 0.34 0.33 0.37 0.36 0.39 0.46 0.61 0.58 0.45 0.36 0.30 0.27 0.26 0.22 0.15 0.11 0.11 0.08 0.13 0.15 0.14 0.15 0.15 0.12 0.13 0.14 0.12 0.13 0.15 0.18 0.28 0.43 0.49 0.54 0.58 0.61 0.64 0.66 0.60
0.31 0.36 0.37 0.34 0.32 0.32 0.32 0.32 0.37 0.41 0.52 0.52 0.40 0.31 0.26 0.22 0.18 0.17 0.16 0.09 0.04 0.03 0.03 0.05 0.05 0.06 0.07 0.08 0.10 0.12 0.13 0.15 0.18 0.24 0.40 0.46 0.49 0.52 0.51 0.51 0.55 0.59 0.57